Погода в Кадоме

Зимбабве     18°20′07″S   29°55′11″E
темп.,
°C
ветер,
м/с
пор.,
м/с
влажн.,
%
обл.,
%
осадки,
мм/ч
давл.,
гПа
погр.,
м
17 мая, вт
вт1723:00+16вюв512583 0.0 1024571
02:00+13вюв411763 0.0 1023388
05:00+12вюв398268 0.0 1023281
08:00+16вюв4769100 0.0 1024374
11:00+19юв3554100 0.0 1023819
14:00+24вюв123497 0.0 10192378
17:00+19ююв3647100 0.0 1019243
20:00+18юв3749100 0.0 1020318
18 мая, ср
ср1823:00+16юв265499 0.0 1021255
02:00+16вюв3854100 0.0 1021448
05:00+15вюв3759100 0.0 1021339
08:00+16вюв2462100 0.0 1022362
11:00+22в23429 0.0 10201242
14:00+22всв2235100 0.0 10161967
17:00+20ююв234525 0.0 101786
20:00+16ююв225063 0.0 101922
19 мая, чт
чт1923:00+15юв225577 0.0 102038
02:00+14вюв235713 0.0 101949
05:00+12в266671 0.0 1019106
08:00+17всв37575 0.0 1020292
11:00+24с23345 0.0 10182263
14:00+26зсз222549 0.0 10142920
17:00+22з223531 0.0 101428
20:00+20юв1138100 0.0 101721
20 мая, пт
пт2023:00+19сз124772 0.0 101753
02:00+15св226422 0.0 101714
05:00+14всв22664 0.0 101736
08:00+18ссв245132 0.0 1018218
11:00+25ссз353167 0.0 10161907
14:00+27зсз45245 0.0 10133089
17:00+23сз11334 0.0 101311
20:00+19ссз244015 0.0 101680
21 мая, сб
сб2123:00+17ссв235325 0.0 101737
02:00+16ссв225898 0.0 101628
05:00+16ююв115677 0.0 101628
08:00+18ююв235197 0.0 1019201
11:00+26ююв113070 0.0 10181093
14:00+27сз232893 0.0 10142804
17:00+21ююз364939 0.1 1016281
20:00+16вюв357811 0.6 1019105